Hourly Data Report for November 17, 2016

PITT MEADOWS CS
BRITISH COLUMBIA

49°12'29.964" N
122°41'24.076" W
5.00 m
1106178
71775
WMM

Download Data

Hourly Data (November 2016)
Hourly Data Report for November 17, 2016
TIME
LST
Temp Definition
°C
Dew Point Definition
°C
Rel Hum Definition
%
Precip. Amount Definition
mm

Wind Dir Definition
10's deg

Wind Spd Definition
km/h
Visibility Definition
km
Stn Press Definition
kPa
Hmdx Definition


Wind Chill Definition


Weather Definition


00:00 5.8 4.9 94 1.4 5 8   101.84     LegendNANA
01:00 5.3 4.1 92 0.4 8 7   101.84     LegendNANA
02:00 5.1 4.1 93 1.0 3 5   101.86     LegendNANA
03:00 5.5 4.7 95 1.0 3 7   101.88     LegendNANA
04:00 5.2 4.4 94 1.2 5 9   101.88     LegendNANA
05:00 4.9 4.0 94 0.1 12 2   101.91     LegendNANA
06:00 4.9 4.1 94 0.1 35 3   101.92     LegendNANA
07:00 5.1 4.3 94 1.1 2 8   101.95     LegendNANA
08:00 5.3 4.3 94 0.5 2 7   102.01     LegendNANA
09:00 5.6 4.7 94 0.2 3 12   102.04     LegendNANA
10:00 6.0 5.0 93 0.0 2 10   102.09     LegendNANA
11:00 6.8 5.2 90 0.0 4 9   102.12     LegendNANA
12:00 6.9 5.4 90 0.0 5 5   102.15     LegendNANA
13:00 7.5 5.6 88 0.0 2 7   102.13     LegendNANA
14:00 7.3 5.5 88 0.0 3 9   102.15     LegendNANA
15:00 7.3 5.3 88 0.0 3 10   102.16     LegendNANA
16:00 7.2 5.4 88 0.0 3 8   102.18     LegendNANA
17:00 7.1 5.4 89 0.0 5 6   102.19     LegendNANA
18:00 7.0 5.6 91 0.0 3 7   102.21     LegendNANA
19:00 7.0 5.4 90 0.0 7 5   102.24     LegendNANA
20:00 6.5 4.9 90 0.0 9 1   102.25     LegendNANA
21:00 6.1 4.7 91 0.0 14 3   102.27     LegendNANA
22:00 4.6 3.7 94 0.0 15 1   102.27     LegendNANA
23:00 3.8 3.1 95 0.0   0   102.26     LegendNANA

Notes on Data Quality.

Legend

  • E = Estimated
  • M = Missing
  • NA = Not Available*
  • [empty] = Indicates an unobserved value
Date modified: